[[{"header":{"parameterUnit":"m.s-1","parameterCategory":1,"la1":30.2991,"la2":30.254,"lo1":-89.0895,"lo2":-89.0444,"dy":0.0017,"dx":0.0017,"nx":28,"ny":28,"refTime":"2023-09-06T21:00:00:Z","depth":0,"parameterNumber":2,"parameterNumberName":"U-component_of_WINDS"},"data":[0,0,0,0,0,0,0,0,0,0,0,0,0,0,0,0,0,0,0,0,0,0,0,0,0,0,0,0,0,0,0,0,0,0,0,0,0,0,0,0,0,0,0,0,0,0,0,0,0,0,0,0,0,0,0,0,0,0,-3.6555,-3.6555,0,-3.6583,-3.6584,-3.6584,-3.6516,-3.6514,-3.6512,-3.651,-3.6539,-3.6542,-3.6545,0,0,0,0,0,0,0,0,0,0,0,0,0,-3.6444,-3.6446,-3.6555,-3.6555,-3.6555,-3.6583,-3.6584,-3.6584,-3.6516,-3.6514,-3.6511,-3.6509,-3.6538,-3.6542,-3.6545,0,0,0,0,0,0,0,0,0,0,0,0,0,-3.6484,-3.6447,-3.6554,-3.6525,-3.6522,-3.6583,-3.6584,-3.6584,-3.6517,-3.6514,-3.651,-3.6507,-3.6537,-3.6541,-3.6545,-3.6636,0,0,-3.6558,-3.656,0,0,0,0,0,0,0,0,-3.6482,-3.6488,-3.6529,-3.6527,-3.6524,-3.6543,-3.6555,-3.6602,-3.6518,-3.6519,-3.6509,-3.6506,-3.6543,-3.6547,-3.6559,-3.6638,-3.6639,-3.6559,-3.6561,-3.6563,-3.6564,0,0,0,0,0,0,0,-3.6479,-3.6487,-3.6566,-3.653,-3.6527,-3.6511,-3.6513,-3.6564,-3.6549,-3.6519,-3.6514,-3.6518,-3.6541,-3.6555,-3.6559,-3.6639,-3.6559,-3.6562,-3.6565,-3.6566,-3.6796,-3.6799,0,0,0,0,0,0,-3.648,-3.6485,-3.6565,-3.6567,-3.6495,-3.6516,-3.6518,-3.654,-3.6548,-3.6546,-3.6521,-3.6515,-3.655,-3.6554,-3.656,-3.6667,-3.6563,-3.6567,-3.6569,-3.6792,-3.6797,-3.68,0,0,0,0,0,0,-3.6478,-3.6488,-3.6564,-3.6525,-3.6533,-3.6521,-3.6546,-3.6542,-3.6556,-3.655,-3.6547,-3.6538,-3.6547,-3.6554,-3.6618,-3.6667,-3.6569,-3.6573,-3.6788,-3.6794,-3.6799,-3.6882,0,0,0,0,0,0,-3.6475,-3.6487,-3.6521,-3.6526,-3.6535,-3.6621,-3.6549,-3.6545,-3.6564,-3.6556,-3.6565,-3.6563,-3.6545,-3.6612,-3.6622,-3.6671,-3.6576,-3.6784,-3.6791,-3.6797,-3.6874,-3.6889,-3.6902,0,0,0,0,0,-3.6471,-3.6543,-3.6523,-3.6533,-3.6577,-3.6624,-3.6629,-3.6607,-3.6568,-3.6602,-3.6598,-3.6563,-3.6661,-3.6619,-3.663,-3.6681,-3.678,-3.6789,-3.6796,-3.6868,-3.6886,-3.6901,0,0,0,0,0,0,-3.6543,-3.6543,-3.652,-3.6596,-3.661,-3.6612,-3.6654,-3.6627,-3.6652,-3.6644,-3.6616,-3.6619,-3.6688,-3.6691,-3.6645,-3.677,-3.6714,-3.6725,-3.6765,-3.6782,-3.6795,-3.6792,-3.6579,0,0,0,0,0,-3.6568,-3.6605,-3.6603,-3.667,-3.6679,-3.6666,-3.6685,-3.6667,-3.6681,-3.6687,-3.6688,-3.6703,-3.6737,-3.676,-3.6791,-3.6876,-3.6877,-3.6916,-3.693,-3.6941,-3.695,-3.6996,-3.7013,-3.6827,-3.6827,-3.6827,0,0,-3.6619,-3.6623,-3.6648,-3.6685,-3.6694,-3.6734,-3.6671,-3.6716,-3.6745,-3.6694,-3.6753,-3.6756,-3.6771,-3.6846,-3.6879,-3.6851,-3.7003,-3.6952,-3.6961,-3.6963,-3.7006,-3.7024,-3.7039,-3.6832,-3.6831,-3.683,0,0,-3.6732,-3.6739,-3.6796,-3.6807,-3.6822,-3.6814,-3.6828,-3.6835,-3.6834,-3.6894,-3.6857,-3.6893,-3.6952,-3.6965,-3.6979,-3.7102,-3.7071,-3.7114,-3.7184,-3.7229,-3.7243,-3.7256,-3.73,-3.7315,-3.7123,-3.7123,-3.7123,0,-3.6793,-3.6851,-3.6828,-3.6876,-3.6893,-3.685,-3.6908,-3.692,-3.6945,-3.6958,-3.6927,-3.7002,-3.701,-3.7087,-3.7118,-3.7131,-3.7146,-3.711,-3.7243,-3.7256,-3.7268,-3.7308,-3.7325,-3.7128,-3.7127,-3.7127,-3.7126,0,-3.6926,-3.6967,-3.7011,-3.7037,-3.706,-3.7112,-3.7099,-3.7125,-3.7107,-3.7102,-3.7165,-3.7174,-3.7206,-3.7224,-3.7206,-3.73,-3.7282,-3.7248,-3.719,-3.7291,-3.7329,-3.7344,-3.7135,-3.7133,-3.7132,-3.7131,0,0,-3.708,-3.7095,-3.7111,-3.7123,-3.7139,-3.7171,-3.7223,-3.7256,-3.7279,-3.7299,-3.7342,-3.7395,-3.7364,-3.7381,-3.7365,-3.7405,-3.7502,-3.7365,-3.7365,-3.7389,-3.7606,-3.763,-3.7649,-3.7483,-3.7485,-3.7488,-3.7604,0,-3.7191,-3.7279,-3.7262,-3.7348,-3.7387,-3.7349,-3.7395,-3.741,-3.7408,-3.7442,-3.744,-3.7478,-3.7434,-3.7444,-3.7483,-3.7482,-3.7544,-3.7473,-3.7522,-3.7524,-3.7516,-3.7668,-3.7694,-3.7803,-3.7619,-3.7622,-3.7623,0,-3.7331,-3.7357,-3.7447,-3.7459,-3.7474,-3.7515,-3.7545,-3.7577,-3.7595,-3.7591,-3.7612,-3.7589,-3.7642,-3.7587,-3.766,-3.7612,-3.7632,-3.7635,-3.7639,-3.764,-3.7578,-3.7672,-3.7837,-3.7853,-3.7647,-3.7645,-3.7643,0,-3.7433,-3.7491,-3.7553,-3.7565,-3.758,-3.761,-3.7618,-3.7632,-3.7653,-3.768,-3.7694,-3.7727,-3.7744,-3.7771,-3.7758,-3.7719,-3.7834,-3.7778,-3.7832,-3.7833,-3.7855,-3.7854,-3.8024,-3.7872,-3.7872,-3.7872,-3.7871,0,-3.7557,-3.7614,-3.7599,-3.7637,-3.77,-3.7682,-3.7745,-3.7749,-3.7763,-3.7801,-3.7772,-3.7809,-3.7791,-3.7827,-3.7819,-3.7881,-3.7889,-3.7888,-3.7884,-3.7889,-3.7889,-3.7899,-3.7891,-3.7876,-3.7875,-3.7874,-3.7873,0,-3.7681,-3.7673,-3.7738,-3.7748,-3.7752,-3.7799,-3.7807,-3.7844,-3.7841,-3.7891,-3.7902,-3.7898,-3.794,-3.7931,-3.7976,-3.7971,-3.8048,-3.8037,-3.8042,-3.8038,-3.8093,-3.8088,-3.8274,-3.8297,-3.8133,-3.8134,-3.8136,0,-3.7759,-3.7802,-3.7817,-3.7841,-3.7851,-3.789,-3.7912,-3.7897,-3.7922,-3.7947,-3.798,-3.802,-3.805,-3.8119,-3.812,-3.8156,-3.8144,-3.8207,-3.8148,-3.8153,-3.8143,-3.814,-3.8144,-3.8217,-3.8219,-3.8221,-3.8222,0,-3.7899,-3.7894,-3.7926,-3.7959,-3.7987,-3.8012,-3.8034,-3.8056,-3.8042,-3.8072,-3.8114,-3.8138,-3.8186,-3.8225,-3.8259,-3.8268,-3.8243,-3.8241,-3.8255,-3.8259,-3.826,-3.8259,-3.8071,-3.8236,-3.8234,-3.8233,-3.8233,-3.8232,-3.8001,-3.8038,-3.8055,-3.8093,-3.8109,-3.8131,-3.8165,-3.8169,-3.8204,-3.8241,-3.8231,-3.8279,-3.8299,-3.8341,-3.8355,-3.8393,-3.8369,-3.839,-3.8395,-3.84,-3.8406,-3.8257,-3.8399,-3.8399,-3.8399,-3.8398,-3.8398,0,-3.8138,-3.8148,-3.8184,-3.8216,-3.8247,-3.8222,-3.8247,-3.8274,-3.8317,-3.8337,-3.8368,-3.8418,-3.8457,-3.8464,-3.8501,-3.8531,-3.8521,-3.8541,-3.8538,-3.854,-3.8426,-3.8409,-3.8549,-3.8549,-3.8549,-3.8549,-3.8549,-3.8549,-3.8213,-3.8274,-3.8271,-3.8341,-3.835,-3.8397,-3.8413,-3.8434,-3.8451,-3.8507,-3.854,-3.8544,-3.856,-3.8599,-3.8634,-3.8635,-3.865,-3.8674,-3.8671,-3.8563,-3.8548,-3.8534,-3.8518,-3.8678,-3.8678,-3.8782,-3.8783,-3.8784]},{"header":{"parameterUnit":"m.s-1","parameterCategory":1,"la1":30.2991,"la2":30.254,"lo1":-89.0895,"lo2":-89.0444,"dy":0.0017,"dx":0.0017,"nx":28,"ny":28,"refTime":"2023-09-06T21:00:00:Z","depth":0,"parameterNumber":3,"parameterNumberName":"V-component_of_WINDS"},"data":[0,0,0,0,0,0,0,0,0,0,0,0,0,0,0,0,0,0,0,0,0,0,0,0,0,0,0,0,0,0,0,0,0,0,0,0,0,0,0,0,0,0,0,0,0,0,0,0,0,0,0,0,0,0,0,0,0,0,4.7011,4.7012,0,4.7105,4.7106,4.7107,4.7165,4.7166,4.7166,4.7166,4.7256,4.7258,4.726,0,0,0,0,0,0,0,0,0,0,0,0,0,4.6876,4.6878,4.7011,4.7012,4.7013,4.7105,4.7106,4.7107,4.7165,4.7166,4.7166,4.7166,4.7255,4.7257,4.726,0,0,0,0,0,0,0,0,0,0,0,0,0,4.6948,4.6879,4.701,4.7053,4.7058,4.7105,4.7106,4.7108,4.7165,4.7166,4.7166,4.7167,4.7254,4.7257,4.726,4.727,0,0,4.727,4.7271,0,0,0,0,0,0,0,0,4.6944,4.6953,4.7046,4.705,4.7056,4.7124,4.7092,4.7162,4.7165,4.7124,4.7166,4.7167,4.7211,4.7218,4.7234,4.7274,4.7278,4.727,4.7272,4.7273,4.7274,0,0,0,0,0,0,0,4.6939,4.6949,4.7048,4.7047,4.7053,4.7066,4.7077,4.7105,4.7163,4.7128,4.7132,4.7143,4.7214,4.7231,4.7237,4.7279,4.727,4.7273,4.7275,4.7276,4.7334,4.7333,0,0,0,0,0,0,4.6928,4.6945,4.7045,4.7051,4.7,4.7068,4.708,4.7102,4.7163,4.7173,4.7143,4.7145,4.7225,4.7233,4.724,4.7257,4.7273,4.7276,4.7278,4.7334,4.7334,4.7333,0,0,0,0,0,0,4.6925,4.6936,4.7041,4.6999,4.7014,4.707,4.7093,4.7103,4.7121,4.7175,4.7185,4.715,4.7226,4.7236,4.7263,4.7261,4.7278,4.728,4.7334,4.7334,4.7333,4.7289,0,0,0,0,0,0,4.6921,4.6935,4.694,4.6999,4.7016,4.7064,4.7093,4.7105,4.7127,4.7131,4.7184,4.7193,4.7227,4.7258,4.7266,4.7265,4.7283,4.7335,4.7334,4.7334,4.7291,4.7287,4.7284,0,0,0,0,0,4.6916,4.6922,4.694,4.6952,4.7023,4.7063,4.7073,4.7114,4.7126,4.7131,4.7167,4.7191,4.726,4.726,4.727,4.727,4.7335,4.7334,4.7334,4.7292,4.7288,4.7284,0,0,0,0,0,0,4.6857,4.693,4.6951,4.6977,4.7014,4.7073,4.7081,4.7107,4.714,4.7142,4.719,4.7201,4.7224,4.725,4.7249,4.7283,4.73,4.7301,4.7266,4.7262,4.7258,4.7251,4.7285,0,0,0,0,0,4.6848,4.6877,4.6938,4.6954,4.6972,4.7023,4.7042,4.7071,4.711,4.7126,4.7163,4.7198,4.7228,4.7246,4.7276,4.7295,4.7308,4.73,4.7296,4.7293,4.7293,4.7307,4.7304,4.7331,4.7331,4.7331,0,0,4.6828,4.6871,4.6886,4.6944,4.6976,4.7003,4.7036,4.7062,4.7083,4.7129,4.7158,4.7187,4.7229,4.7253,4.7265,4.7275,4.7289,4.7292,4.7289,4.7291,4.7306,4.7303,4.7301,4.733,4.733,4.733,0,0,4.6806,4.6841,4.686,4.6893,4.6943,4.6977,4.6981,4.7038,4.706,4.709,4.7126,4.715,4.72,4.723,4.7251,4.7244,4.7268,4.7252,4.7233,4.7246,4.7244,4.7242,4.724,4.7239,4.7252,4.7252,4.7252,0,4.6773,4.6818,4.6865,4.6892,4.6916,4.6963,4.6982,4.701,4.7066,4.7081,4.7092,4.7158,4.719,4.7222,4.7221,4.7236,4.7243,4.7246,4.7241,4.7239,4.7239,4.7237,4.7236,4.725,4.725,4.725,4.7251,0,4.6777,4.6807,4.6816,4.6873,4.6898,4.692,4.697,4.699,4.7017,4.705,4.7082,4.7122,4.7163,4.7173,4.7198,4.7209,4.7214,4.7232,4.725,4.7233,4.7233,4.7232,4.7247,4.7248,4.7248,4.7249,0,0,4.6718,4.6804,4.6806,4.6833,4.6893,4.6917,4.6941,4.6984,4.7,4.7037,4.7059,4.7102,4.712,4.7145,4.7174,4.7185,4.7178,4.7203,4.7204,4.7197,4.7194,4.718,4.7179,4.7196,4.7196,4.7196,4.7191,0,4.6704,4.6754,4.6798,4.683,4.6859,4.6906,4.6927,4.6965,4.6997,4.7026,4.706,4.709,4.7112,4.7127,4.714,4.7176,4.7178,4.7177,4.7215,4.7216,4.7203,4.7179,4.7164,4.7157,4.7191,4.7191,4.7191,0,4.6695,4.6734,4.677,4.683,4.6844,4.6863,4.6907,4.6933,4.6978,4.7001,4.703,4.7062,4.7089,4.7105,4.7143,4.7142,4.716,4.718,4.7181,4.7186,4.7202,4.7183,4.7156,4.7155,4.7191,4.7191,4.7191,0,4.665,4.6711,4.6742,4.6763,4.6833,4.6846,4.6875,4.6921,4.6944,4.6982,4.6998,4.7037,4.7058,4.7087,4.7129,4.7136,4.7163,4.7182,4.7182,4.7181,4.7185,4.7184,4.716,4.7196,4.7196,4.7196,4.7196,0,4.663,4.665,4.6723,4.6741,4.6766,4.6817,4.6839,4.6872,4.6913,4.6937,4.6979,4.7001,4.7055,4.7083,4.7115,4.7143,4.7152,4.717,4.7179,4.7167,4.7164,4.7179,4.718,4.7196,4.7196,4.7196,4.7196,0,4.6583,4.6632,4.6669,4.6734,4.675,4.6766,4.682,4.684,4.6875,4.6907,4.6917,4.6972,4.7008,4.7053,4.7102,4.7124,4.7148,4.716,4.7134,4.7139,4.7136,4.7136,4.7121,4.7122,4.7157,4.7156,4.7156,0,4.6567,4.6584,4.6653,4.6674,4.6703,4.6736,4.6762,4.6813,4.6837,4.6892,4.6904,4.6944,4.6979,4.7034,4.7077,4.7115,4.7129,4.7122,4.7135,4.7123,4.713,4.7129,4.7131,4.7117,4.7117,4.7116,4.7116,0,4.6534,4.6559,4.6595,4.6641,4.6671,4.6709,4.6748,4.6762,4.6822,4.6847,4.6886,4.6913,4.6966,4.7005,4.7049,4.7078,4.7106,4.7112,4.7114,4.7102,4.7086,4.7096,4.7124,4.7112,4.7112,4.7112,4.7113,4.7113,4.6503,4.6521,4.6573,4.6613,4.6649,4.6686,4.6708,4.6748,4.6783,4.6831,4.6859,4.6897,4.6943,4.7007,4.7034,4.7064,4.7075,4.7077,4.7078,4.7078,4.7075,4.7082,4.7072,4.7072,4.7073,4.7073,4.7073,0,4.6473,4.651,4.6546,4.6602,4.6633,4.6661,4.6707,4.673,4.6765,4.6806,4.6841,4.6887,4.6925,4.6973,4.7015,4.703,4.7044,4.7039,4.7038,4.7045,4.7063,4.7057,4.7027,4.7027,4.7027,4.7027,4.7027,4.7027,4.6461,4.6495,4.6526,4.6578,4.6614,4.6654,4.6678,4.6712,4.6746,4.6796,4.683,4.6862,4.6906,4.6952,4.6989,4.7002,4.7015,4.7006,4.7023,4.7039,4.7043,4.7047,4.7042,4.7009,4.7009,4.7003,4.7003,4.7003]}]]